Date String (YYYY-MM-DD hh:mm:ss) UTC,Instrument flags,Ambient pressure (hPa),Sample flow (lpm),Bypass flow (lpm),Sample temperature (°C),Ambient temperature (°C),ASC tube jacket temperature (°C),LED temperature (°C),Box temperature (°C),Sample RH (%),Span deviation,Mass concentration (μg/m³),Mass concentration (μg/m³),Mass concentration (μg/m³)
DateTimeUTC,F1_M11,P_M11,Q1_M11,Q2_M11,T1_M11,T2_M11,T3_M11,T4_M11,T5_M11,U1_M11,ZSPAN_M11,X0_M11,X2_M11,X1_M11
2022-08-19 08:00:00,,0829.3,4.99,0.00,29.6,27.6,00.0,38.4,31.3,21.9,0000.0,0012.40,0006.13,0005.37
2022-08-19 08:01:00,,0829.2,4.99,0.00,29.6,27.7,00.0,38.4,31.3,21.8,0000.0,0012.21,0006.10,0005.37
2022-08-19 08:02:00,,0829.0,5.01,0.00,29.6,27.8,00.0,38.4,31.3,21.7,0000.0,0012.24,0006.13,0005.37
2022-08-19 08:03:00,,0829.0,5.00,0.00,29.6,27.9,00.0,38.4,31.4,21.7,0000.0,0012.10,0006.13,0005.37
2022-08-19 08:04:00,,0829.0,4.99,0.00,29.6,28.0,00.0,38.4,31.4,21.7,0000.0,0011.80,0006.10,0005.36
2022-08-19 08:05:00,,0829.0,5.00,0.00,29.6,28.1,00.0,38.4,31.4,21.7,0000.0,0011.90,0006.05,0005.37
2022-08-19 08:06:00,,0828.7,5.00,0.00,29.6,28.2,00.0,38.4,31.4,21.7,0000.0,0011.87,0006.03,0005.36
2022-08-19 08:07:00,,0828.7,5.01,0.00,29.6,28.3,00.0,38.4,31.5,21.6,0000.0,0012.69,0005.98,0005.34
2022-08-19 08:08:00,,0828.7,5.01,0.00,29.6,28.4,00.0,38.4,31.5,21.7,0000.0,0012.87,0006.00,0005.34
2022-08-19 08:09:00,,0828.7,4.99,0.00,29.6,28.4,00.0,38.4,31.5,21.7,0000.0,0013.10,0006.01,0005.33
2022-08-19 08:10:00,,0828.7,5.00,0.00,29.7,28.5,00.0,38.4,31.5,21.6,0000.0,0013.60,0006.04,0005.35
2022-08-19 08:11:00,,0828.7,5.01,0.00,29.7,28.5,00.0,38.4,31.6,21.6,0000.0,0013.66,0006.05,0005.35
2022-08-19 08:12:00,,0828.9,5.00,0.00,29.7,28.6,00.0,38.4,31.6,21.6,0000.0,0014.02,0006.07,0005.35
2022-08-19 08:13:00,,0829.2,5.01,0.00,29.7,28.6,00.0,38.4,31.6,21.6,0000.0,0014.37,0006.10,0005.36
2022-08-19 08:14:00,,0829.3,5.00,0.00,29.7,28.7,00.0,38.5,31.6,21.6,0000.0,0013.96,0006.10,0005.37
2022-08-19 08:15:00,,0829.2,5.00,0.00,29.8,28.7,00.0,38.5,31.6,21.5,0000.0,0013.94,0006.15,0005.38
2022-08-19 08:16:00,,0829.2,5.00,0.00,29.8,28.7,00.0,38.5,31.7,21.5,0000.0,0014.01,0006.22,0005.41
2022-08-19 08:17:00,,0829.2,5.00,0.00,29.8,28.7,00.0,38.5,31.7,21.4,0000.0,0013.90,0006.26,0005.44
2022-08-19 08:18:00,,0829.1,5.00,0.00,29.8,28.8,00.0,38.5,31.7,21.4,0000.0,0012.31,0006.35,0005.49
2022-08-19 08:19:00,,0828.8,5.00,0.00,29.8,28.8,00.0,38.5,31.7,21.5,0000.0,0012.43,0006.34,0005.50
2022-08-19 08:20:00,,0828.7,5.00,0.00,29.8,28.8,00.0,38.5,31.8,21.5,0000.0,0012.42,0006.34,0005.51
2022-08-19 08:21:00,,0828.7,5.00,0.00,29.9,28.8,00.0,38.6,31.8,21.4,0000.0,0012.91,0006.32,0005.52
2022-08-19 08:22:00,,0828.8,4.99,0.00,29.9,28.9,00.0,38.6,31.8,21.1,0000.0,0013.29,0006.32,0005.54
2022-08-19 08:23:00,,0828.7,5.00,0.00,29.9,28.9,00.0,38.6,31.8,21.2,0000.0,0013.37,0006.35,0005.58
2022-08-19 08:24:00,,0828.9,5.00,0.00,29.9,28.9,00.0,38.6,31.9,21.2,0000.0,0013.24,0006.35,0005.60
2022-08-19 08:25:00,,0829.0,5.00,0.00,29.9,28.9,00.0,38.6,31.8,21.0,0000.0,0013.28,0006.37,0005.62
2022-08-19 08:26:00,,0829.0,4.99,0.00,29.9,28.4,00.0,38.6,31.7,21.1,0000.0,0013.22,0006.35,0005.63
2022-08-19 08:27:00,,0829.1,5.00,0.00,29.8,27.6,00.0,38.5,31.5,21.2,0000.0,0013.76,0006.33,0005.63
2022-08-19 08:28:00,,0829.1,5.00,0.00,29.8,27.4,00.0,38.5,31.4,21.2,0000.0,0013.87,0006.34,0005.64
2022-08-19 08:29:00,,0828.9,5.01,0.00,29.7,27.4,00.0,38.5,31.3,21.4,0000.0,0013.76,0006.28,0005.63
2022-08-19 08:30:00,,0829.0,5.01,0.00,29.6,27.5,00.0,38.5,31.3,21.6,0000.0,0013.04,0006.28,0005.63
2022-08-19 08:31:00,,0829.0,4.99,0.00,29.6,27.6,00.0,38.4,31.3,21.5,0000.0,0012.67,0006.28,0005.64
2022-08-19 08:32:00,,0829.0,5.01,0.00,29.6,27.7,00.0,38.4,31.3,21.5,0000.0,0012.46,0006.32,0005.65
2022-08-19 08:33:00,,0828.9,4.99,0.00,29.6,27.9,00.0,38.4,31.3,21.5,0000.0,0013.37,0006.36,0005.65
2022-08-19 08:34:00,,0828.7,4.99,0.00,29.6,28.0,00.0,38.4,31.4,21.4,0000.0,0013.07,0006.37,0005.65
2022-08-19 08:35:00,,0828.7,5.01,0.00,29.6,28.1,00.0,38.4,31.4,21.6,0000.0,0013.09,0006.36,0005.63
2022-08-19 08:36:00,,0828.5,5.00,0.00,29.6,28.2,00.0,38.4,31.4,21.4,0000.0,0013.95,0006.35,0005.63
2022-08-19 08:37:00,,0828.5,5.00,0.00,29.6,28.2,00.0,38.4,31.4,21.4,0000.0,0013.95,0006.37,0005.63
2022-08-19 08:38:00,,0828.5,4.99,0.00,29.6,28.3,00.0,38.4,31.5,21.4,0000.0,0013.36,0006.38,0005.62
2022-08-19 08:39:00,,0828.5,4.99,0.00,29.6,28.4,00.0,38.4,31.5,21.3,0000.0,0013.01,0006.36,0005.61
2022-08-19 08:40:00,,0828.5,5.00,0.00,29.6,28.4,00.0,38.4,31.5,21.3,0000.0,0013.10,0006.35,0005.60
2022-08-19 08:41:00,,0828.5,5.01,0.00,29.7,28.5,00.0,38.4,31.5,21.3,0000.0,0013.31,0006.38,0005.61
2022-08-19 08:42:00,,0828.5,5.00,0.00,29.7,28.5,00.0,38.4,31.5,21.3,0000.0,0013.43,0006.40,0005.62
2022-08-19 08:43:00,,0828.4,5.01,0.00,29.7,28.6,00.0,38.4,31.6,21.5,0000.0,0013.00,0006.40,0005.61
2022-08-19 08:44:00,,0828.4,5.01,0.00,29.7,28.6,00.0,38.4,31.6,21.5,0000.0,0012.12,0006.38,0005.61
2022-08-19 08:45:00,,0828.4,5.00,0.00,29.7,28.6,00.0,38.5,31.6,21.2,0000.0,0012.09,0006.37,0005.62
2022-08-19 08:46:00,,0828.3,5.00,0.00,29.7,28.7,00.0,38.5,31.6,21.1,0000.0,0012.26,0006.34,0005.61
2022-08-19 08:47:00,,0828.3,5.00,0.00,29.8,28.7,00.0,38.5,31.7,21.0,0000.0,0011.76,0006.35,0005.61
2022-08-19 08:48:00,,0828.3,5.00,0.00,29.8,28.7,00.0,38.5,31.7,21.0,0000.0,0012.38,0006.37,0005.60
2022-08-19 08:49:00,,0828.3,5.00,0.00,29.8,28.8,00.0,38.5,31.7,21.1,0000.0,0012.42,0006.36,0005.60
2022-08-19 08:50:00,,0828.3,5.02,0.00,29.8,28.8,00.0,38.5,31.8,21.1,0000.0,0012.29,0006.32,0005.58
2022-08-19 08:51:00,,0828.3,4.99,0.00,29.8,28.8,00.0,38.5,31.7,21.1,0000.0,0012.30,0006.33,0005.58
2022-08-19 08:52:00,,0828.2,5.00,0.00,29.9,28.8,00.0,38.5,31.7,21.1,0000.0,0012.22,0006.33,0005.58
2022-08-19 08:53:00,,0828.3,5.00,0.00,29.9,28.9,00.0,38.6,31.7,21.1,0000.0,0012.43,0006.36,0005.57
2022-08-19 08:54:00,,0828.2,5.00,0.00,29.9,28.9,00.0,38.6,31.8,21.0,0000.0,0012.89,0006.34,0005.55
2022-08-19 08:55:00,,0828.3,5.00,0.00,29.9,28.9,00.0,38.6,31.8,21.1,0000.0,0012.73,0006.33,0005.54
2022-08-19 08:56:00,,0828.3,5.00,0.00,29.9,28.9,00.0,38.6,31.8,21.1,0000.0,0012.64,0006.33,0005.52
2022-08-19 08:57:00,,0828.3,5.00,0.00,30.0,28.9,00.0,38.6,31.9,21.1,0000.0,0013.26,0006.34,0005.52
2022-08-19 08:58:00,,0828.2,5.00,0.00,30.0,28.9,00.0,38.7,31.9,21.1,0000.0,0013.01,0006.32,0005.53
2022-08-19 08:59:00,,0828.3,5.00,0.00,30.0,29.0,00.0,38.7,31.9,21.1,0000.0,0012.35,0006.29,0005.53
